Location: Azul
(36.7830°S, 59.8500°W)
Time: 09:07:42
(UTC-03:00)

AO-85 - Visible Passes

Search period start: 17 September 2024 00:00
Search period end: 27 September 2024 00:00
Orbit: 485 x 752 km, 64.8° (Epoch: 16 September)

Date Brightness Start Highest point End Pass type
(mag) Time Alt. Az. Time Alt. Az. Time Alt. Az.
17 Sep ? 04:30:44 10° SSE 04:31:48 11° SE 04:32:52 10° ESE visible
17 Sep ? 06:08:08 10° SW 06:11:59 66° WNW 06:16:01 10° NNE visible
17 Sep ? 20:15:20 10° NNW 20:19:30 60° ENE 20:21:15 30° SE visible
17 Sep ? 21:57:52 10° WSW 21:58:31 11° WSW 21:58:31 11° WSW visible
18 Sep ? 04:46:02 10° S 04:49:06 22° SE 04:52:16 10° ENE visible
18 Sep ? 06:25:34 10° SW 06:28:52 27° WNW 06:32:19 10° N visible
18 Sep ? 20:32:22 10° NW 20:36:29 56° WSW 20:39:58 13° SSE visible
19 Sep ? 05:02:54 13° SSW 05:06:13 49° ESE 05:10:09 10° NE visible
19 Sep ? 20:50:08 10° WNW 20:53:34 25° SW 20:56:52 10° S visible
20 Sep ? 03:43:54 10° ESE 03:43:54 10° ESE 03:44:01 10° ESE visible
20 Sep ? 05:21:07 26° SW 05:23:12 67° WNW 05:27:15 10° NNE visible
20 Sep ? 19:26:34 10° NNW 19:30:42 58° ENE 19:34:35 10° SE visible
20 Sep ? 21:09:02 10° WSW 21:10:49 12° SW 21:12:33 10° SSW visible
21 Sep ? 04:02:27 15° E 04:02:27 15° E 04:03:26 10° ENE visible
21 Sep ? 05:39:42 27° WNW 05:40:04 27° WNW 05:43:33 10° N visible
21 Sep ? 19:43:32 10° NW 19:47:38 57° WSW 19:51:32 10° SSE visible
22 Sep ? 04:21:13 10° NE 04:21:13 10° NE 04:21:18 10° NE visible
22 Sep ? 20:01:14 10° WNW 20:04:41 25° SW 20:08:00 10° S visible
23 Sep ? 20:20:03 10° WSW 20:21:53 13° SW 20:23:40 10° SSW visible
26 Sep ? 19:30:57 10° WSW 19:32:50 13° SW 19:34:41 10° SSW visible
